Погода в Вилге

Россия / Республика Карелия     61°49′06″N   34°05′15″E
темп.,
°C
ветер,
м/с
пор.,
м/с
влажн.,
%
обл.,
%
осадки,
мм/ч
давл.,
гПа
погр.,
м
28 сентября, вт
вт2800:00+5св11955 0.0 103310
03:00+5всв11967 0.0 103410
06:00+5в009625 0.0 103410
09:00+8вюв018783 0.0 1035105
12:00+12юв116433 0.0 1034740
15:00+13всв10587 0.0 10341034
18:00+9вюв11815 0.0 103412
21:00+6ююз11908 0.0 103511
29 сентября, ср
ср2900:00+6юз11935 0.0 103610
03:00+5зюз11955 0.0 103614
06:00+4зюз229615 0.0 103624
09:00+7з238624 0.0 1036160
12:00+11зсз23685 0.0 1036571
15:00+13з22625 0.0 1035815
18:00+9з118235 0.0 103510
21:00+6зюз229348 0.0 103538
30 сентября, чт
чт3000:00+5зюз229557 0.0 103634
03:00+4зюз2292100 0.0 103644
06:00+3зюз229293 0.0 103630
09:00+6з138092 0.0 1036137
12:00+10з236596 0.0 1035463
15:00+11зюз2359100 0.0 1034725
18:00+8ююз117796 0.0 103310
21:00+6ююз2187100 0.0 103415
1 октября, пт
пт100:00+5ююз119135 0.0 103314
03:00+4ююз11935 0.0 103317
06:00+4ю22945 0.0 103228
09:00+7ююз268057 0.0 1031200
12:00+11ююз366151 0.0 1030655
15:00+12юз465664 0.0 1029955
18:00+7ююз227953 0.0 102841
21:00+6ююз298952 0.0 1028208
2 октября, сб
сб200:00+8ююз31080100 0.0 1027386
03:00+7ююз3109028 0.0 1027354
06:00+6ююз3109613 0.0 1026298
09:00+8ююз3108431 0.0 1026427
12:00+11ююз4872100 0.0 1025701
15:00+12ююз3869100 0.0 1024781
18:00+9ю3980100 0.0 1024377
21:00+8ю4137870 0.0 1023500